Вернуться в каталог

HELIOS 2A

АктивенВоенныеPO
NORAD 28492·PAYLOAD·🇫🇷 France

Запущен Dec 18, 2004 с Guiana Space Centre

Loading…

Ближайшие Пролёты (ближайшие 24 часа)

TLE

СвежийSource: Space-Track

Эпоха: Sep 14, 2026, 14:00 UTC

1 28492U 04049A   26257.58387202  .00001802  00000-0  13893-3 0  9997
2 28492  98.2474 317.0782 0003118  39.4776 320.6674 15.03031840167195

Отслеживайте HELIOS 2A в реальном времени с AllMySat

Download on the App Store